Regional Weather Roundup
Issued by NWS

Home | Current Version | Previous Version | Graphics & Text | Print | Product List | Glossary On
Versions: 1 2 3 4 5 6 7 8 9 10 11 12 13 14 15 16 17 18 19 20 21 22 23 24 25 26 27 28 29 30 31 32 33 34 35 36 37 38 39 40 41 42 43 44 45 46 47 48 49 50
000
ASUS43 KDTX 231710
RWRMI
MICHIGAN HOURLY REGIONAL WEATHER ROUNDUP
NATIONAL WEATHER SERVICE DETROIT/PONTIAC MI
100 PM EDT SAT JUL 23 2016

NOTE: "FAIR" INDICATES FEW OR NO CLOUDS BELOW 12,000 FEET WITH NO
SIGNIFICANT WEATHER AND/OR OBSTRUCTION TO VISIBILITY.

MIZ047>049-052>055-059>063-066>070-074>076-081>083-231800-
SOUTHEAST LOWER MICHIGAN

CITY           SKY/WX    TMP DP  RH WIND       PRES   REMARKS
ADRIAN         SUNNY     88  69  53 W5        30.02R HX  92
ALMA           SUNNY     88  65  45 W3        29.99F HX  90
ANN ARBOR      SUNNY     92  61  35 NW7       30.00S HAZE    HX  92
BAD AXE        SUNNY     86  58  39 NE8       30.02R HAZE
CARO           SUNNY     88  64  44 CALM      30.00S
DETROIT CITY   SUNNY     90  57  32 VRB3      29.98S
DETROIT        MOSUNNY   92  59  33 W3        30.00R HX  91
FLINT          SUNNY     94  58  29 N9        30.00S HX  93
GROSSE ILE     SUNNY     84  68  57 S6        29.99R
HOWELL         SUNNY     89  65  44 W6        30.01S HX  90

CITY           SKY/WX    TMP DP  RH WIND       PRES   REMARKS
JACKSON        SUNNY     87  63  44 W3        30.02R
LAMBERTVILLE   SUNNY     90  69  49 NW5       30.01R HX  95
LANSING        SUNNY     90  62  39 N6        30.01S HX  90
LAPEER         FAIR      88  64  44 N5        30.02R
MASON          SUNNY     89  65  45 N6        30.01S HX  91
MONROE         SUNNY     87  71  59 MISG      30.00R HX  92
MT. CLEMENS    MOSUNNY   88  66  47 E7        29.97R HX  90
PONTIAC        MOSUNNY   89  60  37 NW7       30.01R
PORT HOPE        N/A     79  66  64 N6        30.00R
PORT HURON     MOSUNNY   86  66  51 NE5       29.99S
TRI CITIES     SUNNY     87  67  51 VRB3      30.00S HX  90
MIDLAND        FAIR      88  58  36 NW3       29.99S
TROY           SUNNY     92  58  31 NW9       30.01R HX  91
SAGINAW HB     SUNNY     88  63  42 NE6       29.99F
$$
MIZ043>046-050>051-056>058-064>065-071>073-077>080-231800-
SOUTHWEST LOWER MICHIGAN

CITY           SKY/WX    TMP DP  RH WIND       PRES   REMARKS
BATTLE CREEK   SUNNY     86  65  49 CALM      30.02S
BENTON HARBOR  SUNNY     89  73  59 W5        30.00S HX  97
BIG RAPIDS     SUNNY     88  56  33 CALM      30.00F
COLDWATER      SUNNY     86  63  45 CALM      30.02S
FREMONT        FAIR      89  61  39 CALM      30.00R
HOLLAND        SUNNY     89  72  56 VRB6      30.01S HX  96
GRAND RAPIDS   PTSUNNY   91  61  36 E7        30.00F HX  91
IONIA          FAIR      89  60  38 E7        29.99F
KALAMAZOO      SUNNY     89  68  49 CALM      30.02R HX  93
LUDINGTON      SUNNY     88  69  52 W7        29.97S HX  92
MARSHALL       SUNNY     87  66  50 CALM      30.01F
MOUNT PLEASANT SUNNY     90  58  34 N5        29.98F
MUSKEGON       MOSUNNY   89  72  56 SW8       29.99S HX  96
SOUTH HAVEN    SUNNY     88  72  58 CALM      30.00S HX  94
$$
MIZ016>042-231800-
NORTHERN LOWER MICHIGAN

CITY           SKY/WX    TMP DP  RH WIND       PRES   REMARKS
ALPENA         SUNNY     89  55  31 N10       29.99F
BEAVER ISLAND  SUNNY     84  58  40 E7        29.98F
BELLAIRE       SUNNY     87  58  37 NW3       29.98S
CADILLAC       SUNNY     87  56  35 NE6       30.01F
CHARLEVOIX     SUNNY     84  63  49 N3        30.01F
FRANKFORT      SUNNY     89  66  46 W8        29.99R HX  91
GAYLORD        MOSUNNY   85  56  37 CALM      30.02F
GRAYLING       MOSUNNY   89  58  35 NE5       30.01F
HARBOR SPRINGS SUNNY     84  69  59 SW3       29.97F
HOUGHTON LAKE  SUNNY     88  53  30 NW5       30.01F
MANISTEE       SUNNY     91  62  37 VRB6      29.98S HX  91
OSCODA         MOSUNNY   82  61  47 NE13      29.99S
PELLSTON       SUNNY     88  57  34 N6        29.98F
ROGERS CITY    SUNNY     78  58  50 N6        30.01F
TRAVERSE CITY  MOSUNNY   85  64  49 N6        29.97S
$$
MIZ007>008-015-231800-
EASTERN UPPER MICHIGAN

CITY           SKY/WX    TMP DP  RH WIND       PRES   REMARKS
KINROSS        SUNNY     83  59  44 N9        29.98F
MACKINAC ISLAN SUNNY     82  58  44 CALM      29.98F
NEWBERRY       SUNNY     85  63  47 CALM      29.98S HAZE
S. S. MARIE    SUNNY     83  62  49 VRB5      29.96F
MUNISING         N/A     74  64  71 NE8       29.98S
$$
MIZ004>006-011>014-085-231800-
CENTRAL UPPER MICHIGAN

CITY           SKY/WX    TMP DP  RH WIND       PRES   REMARKS
MANISTIQUE     SUNNY     81  66  60 SE6       29.98S
ESCANABA       SUNNY     81  63  54 S10       29.97R
MENOMINEE      SUNNY     81  61  50 E5        30.02R
SAWYER-GWINN   SUNNY     81  59  47 E7        30.00F
$$
MIZ001>003-009>011-084-231800-
WESTERN UPPER MICHIGAN

CITY           SKY/WX    TMP DP  RH WIND       PRES   REMARKS
IRON MOUNTAIN  SUNNY     88  53  30 CALM      30.01R
HOUGHTON       SUNNY     74  60  61 E14       29.99F
COPPER HARBOR    N/A     69  61  75 VRB6      29.98F
IRONWOOD       CLOUDY    82  63  51 SE10      29.97R
$$

ABBREVIATIONS USED IN REMARKS
   TC - TEMPERATURE IN CELSIUS
  WCI - WIND CHILL INDEX
   HX - HEAT INDEX
  VSB - VISIBILITY




USA.gov is the U.S. government's official web portal to all federal, state and local government web resources and services.